Year,Month,Day,Hour,Minute,Value (Times are PST for temperature in C)
2016,07,20,00,00,18.40
2016,07,20,00,01,18.40
2016,07,20,00,02,18.40
2016,07,20,00,03,18.40
2016,07,20,00,04,18.40
2016,07,20,00,05,18.40
2016,07,20,00,06,18.40
2016,07,20,00,07,18.40
2016,07,20,00,08,18.40
2016,07,20,00,09,18.30
2016,07,20,00,10,18.30
2016,07,20,00,11,18.30
2016,07,20,00,12,18.30
2016,07,20,00,13,18.30
2016,07,20,00,14,18.30
2016,07,20,00,15,18.30
2016,07,20,00,16,18.30
2016,07,20,00,17,18.30
2016,07,20,00,18,18.30
2016,07,20,00,19,18.30
2016,07,20,00,20,18.30
2016,07,20,00,21,18.20
2016,07,20,00,22,18.20
2016,07,20,00,23,18.20
2016,07,20,00,24,18.20
2016,07,20,00,25,18.20
2016,07,20,00,26,18.20
2016,07,20,00,27,18.10
2016,07,20,00,28,18.10
2016,07,20,00,29,18.10
2016,07,20,00,30,18.10
2016,07,20,00,31,18.00
2016,07,20,00,32,18.00
2016,07,20,00,33,18.00
2016,07,20,00,34,18.00
2016,07,20,00,35,17.90
2016,07,20,00,36,17.90
2016,07,20,00,37,17.90
2016,07,20,00,38,17.90
2016,07,20,00,39,17.90
2016,07,20,00,40,17.90
2016,07,20,00,41,17.90
2016,07,20,00,42,17.90
2016,07,20,00,43,17.90
2016,07,20,00,44,17.80
2016,07,20,00,45,17.80
2016,07,20,00,46,17.80
2016,07,20,00,47,17.80
2016,07,20,00,48,17.80
2016,07,20,00,49,17.80
2016,07,20,00,50,17.80
2016,07,20,00,51,17.70
2016,07,20,00,52,17.70
2016,07,20,00,53,17.70
2016,07,20,00,54,17.60
2016,07,20,00,55,17.60
2016,07,20,00,56,17.60
2016,07,20,00,57,17.60
2016,07,20,00,58,17.60
2016,07,20,00,59,17.60
2016,07,20,01,00,17.60
2016,07,20,01,01,17.60
2016,07,20,01,02,17.60
2016,07,20,01,03,17.60
2016,07,20,01,04,17.50
2016,07,20,01,05,17.50
2016,07,20,01,06,17.40
2016,07,20,01,07,17.30
2016,07,20,01,08,17.30
2016,07,20,01,09,17.30
2016,07,20,01,10,17.30
2016,07,20,01,11,17.30
2016,07,20,01,12,17.30
2016,07,20,01,13,17.30
2016,07,20,01,14,17.30
2016,07,20,01,15,17.30
2016,07,20,01,16,17.30
2016,07,20,01,17,17.30
2016,07,20,06,39,15.20
2016,07,20,06,40,15.20
2016,07,20,06,41,15.20
2016,07,20,06,42,15.20
2016,07,20,06,43,15.20
2016,07,20,06,44,15.30
2016,07,20,06,45,15.30
2016,07,20,06,46,15.30
2016,07,20,06,47,15.30
2016,07,20,06,48,15.30
2016,07,20,06,49,15.40
2016,07,20,06,50,15.40
2016,07,20,06,51,15.40
2016,07,20,06,52,15.40
2016,07,20,06,53,15.40
2016,07,20,06,54,15.40
2016,07,20,06,55,15.50
2016,07,20,06,56,15.50
2016,07,20,06,57,15.50
2016,07,20,06,58,15.50
2016,07,20,06,59,15.60
2016,07,20,07,00,15.60
2016,07,20,07,01,15.60
2016,07,20,07,02,15.60
2016,07,20,07,03,15.70
2016,07,20,07,04,15.70
2016,07,20,07,05,15.70
2016,07,20,07,06,15.70
2016,07,20,07,07,15.70
2016,07,20,07,08,15.70
2016,07,20,07,09,15.70
2016,07,20,07,10,15.70
2016,07,20,07,11,15.80
2016,07,20,07,12,15.80
2016,07,20,07,13,15.80
2016,07,20,07,14,15.90
2016,07,20,07,15,15.90
2016,07,20,07,16,16.00
2016,07,20,07,17,16.10
2016,07,20,07,18,16.10
2016,07,20,07,19,16.20
2016,07,20,07,20,16.30
2016,07,20,07,21,16.40
2016,07,20,07,22,16.50
2016,07,20,07,23,16.50
2016,07,20,07,24,16.60
2016,07,20,07,25,16.60
2016,07,20,07,26,16.70
2016,07,20,07,27,16.70
2016,07,20,07,28,16.70
2016,07,20,07,29,16.70
2016,07,20,07,30,16.80
2016,07,20,07,31,16.80
2016,07,20,07,32,16.80
2016,07,20,07,33,16.80
2016,07,20,07,34,16.80
2016,07,20,07,35,16.80
2016,07,20,07,36,16.90
2016,07,20,07,37,16.90
2016,07,20,07,38,16.90
2016,07,20,07,39,16.90
2016,07,20,07,40,16.90
2016,07,20,07,41,16.90
2016,07,20,07,42,16.90
2016,07,20,07,43,17.00
2016,07,20,07,44,17.00
2016,07,20,07,45,17.00
2016,07,20,07,46,17.10
2016,07,20,07,47,17.10
2016,07,20,07,48,17.20
2016,07,20,07,49,17.20
2016,07,20,07,50,17.30
2016,07,20,07,51,17.30
2016,07,20,07,52,17.30
2016,07,20,07,53,17.40
2016,07,20,07,54,17.40
2016,07,20,07,55,17.50
2016,07,20,07,56,17.60
2016,07,20,07,57,17.70
2016,07,20,07,58,17.80
2016,07,20,07,59,17.80
2016,07,20,08,00,17.90
2016,07,20,08,01,18.00
2016,07,20,08,02,18.00
2016,07,20,08,03,18.00
2016,07,20,08,04,18.10
2016,07,20,08,05,18.10
2016,07,20,08,06,18.10
2016,07,20,08,07,18.10
2016,07,20,08,08,18.20
2016,07,20,08,09,18.20
2016,07,20,08,10,18.40
2016,07,20,08,11,18.50
2016,07,20,08,12,18.60
2016,07,20,08,13,18.70
2016,07,20,08,14,18.80
2016,07,20,08,15,18.80
2016,07,20,08,16,18.90
2016,07,20,08,17,19.00
2016,07,20,08,18,19.00
2016,07,20,08,19,19.10
2016,07,20,08,20,19.20
2016,07,20,08,21,19.20
2016,07,20,08,22,19.20
2016,07,20,08,23,19.20
2016,07,20,08,24,19.20
2016,07,20,08,25,19.20
2016,07,20,08,26,19.10
2016,07,20,08,27,19.10
2016,07,20,08,28,19.00
2016,07,20,08,29,19.00
2016,07,20,08,30,18.90
2016,07,20,08,31,18.90
2016,07,20,08,32,18.90
2016,07,20,08,33,19.00
2016,07,20,08,34,19.00
2016,07,20,08,35,19.10
2016,07,20,08,36,19.20
2016,07,20,08,37,19.20
2016,07,20,08,38,19.10
2016,07,20,08,39,19.10
2016,07,20,08,40,19.00
2016,07,20,08,41,18.90
2016,07,20,08,42,18.80
2016,07,20,08,43,18.80
2016,07,20,08,44,18.80
2016,07,20,08,45,18.70
2016,07,20,08,46,18.60
2016,07,20,08,47,18.60
2016,07,20,08,48,18.50
2016,07,20,08,49,18.40
2016,07,20,08,50,18.30
2016,07,20,08,51,18.20
2016,07,20,08,52,18.20
2016,07,20,08,53,18.20
2016,07,20,08,54,18.20
2016,07,20,08,55,18.20
2016,07,20,08,56,18.20
2016,07,20,08,57,18.30
2016,07,20,08,58,18.30
2016,07,20,08,59,18.40
2016,07,20,09,00,18.50
2016,07,20,09,01,18.60
2016,07,20,09,02,18.70
2016,07,20,09,03,18.80
2016,07,20,09,04,18.90
2016,07,20,09,05,19.00
2016,07,20,09,06,19.00
2016,07,20,09,07,19.10
2016,07,20,09,08,19.30
2016,07,20,09,09,19.40
2016,07,20,09,10,19.50
2016,07,20,09,11,19.60
2016,07,20,09,12,19.70
2016,07,20,09,13,19.80
2016,07,20,09,14,19.80
2016,07,20,09,15,19.90
2016,07,20,09,16,19.90
2016,07,20,09,17,20.00
2016,07,20,09,18,20.10
2016,07,20,09,19,20.20
2016,07,20,09,20,20.20
2016,07,20,09,21,20.30
2016,07,20,09,22,20.40
2016,07,20,09,23,20.40
2016,07,20,09,24,20.60
2016,07,20,09,25,20.70
2016,07,20,09,26,20.70
2016,07,20,09,27,20.70
2016,07,20,09,28,20.60
2016,07,20,09,29,20.50
2016,07,20,09,30,20.40
2016,07,20,09,31,20.10
2016,07,20,09,32,19.80
2016,07,20,09,33,19.70
2016,07,20,09,34,19.60
2016,07,20,09,35,19.40
2016,07,20,09,36,19.50
2016,07,20,09,37,19.50
2016,07,20,09,38,19.50
2016,07,20,09,39,19.50
2016,07,20,09,40,19.40
2016,07,20,09,41,19.40
2016,07,20,09,42,19.50
2016,07,20,09,43,19.60
2016,07,20,09,44,19.70
2016,07,20,09,45,19.70
2016,07,20,09,46,19.50
2016,07,20,09,47,19.40
2016,07,20,09,48,19.40
2016,07,20,09,49,19.50
2016,07,20,09,50,19.60
2016,07,20,09,51,19.70
2016,07,20,09,52,19.80
2016,07,20,09,53,19.80
2016,07,20,09,54,19.80
2016,07,20,09,55,19.90
2016,07,20,09,56,19.90
2016,07,20,09,57,20.00
2016,07,20,09,58,20.10
2016,07,20,09,59,20.10
2016,07,20,10,00,20.20
2016,07,20,10,01,20.20
2016,07,20,10,02,20.10
2016,07,20,10,03,20.00
2016,07,20,10,04,19.90
2016,07,20,10,05,19.90
2016,07,20,10,06,19.90
2016,07,20,10,07,19.90
2016,07,20,10,08,20.00
2016,07,20,10,09,20.00
2016,07,20,10,10,20.10
2016,07,20,10,11,20.10
2016,07,20,10,12,20.00
2016,07,20,10,13,20.00
2016,07,20,10,14,20.10
2016,07,20,10,15,20.10
2016,07,20,10,16,20.10
2016,07,20,10,17,20.10
2016,07,20,10,18,20.10
2016,07,20,10,19,20.00
2016,07,20,10,20,20.00
2016,07,20,10,21,20.00
2016,07,20,10,22,20.00
2016,07,20,10,23,20.10
2016,07,20,10,24,20.20
2016,07,20,10,25,20.30
2016,07,20,10,26,20.40
2016,07,20,10,27,20.40
2016,07,20,10,28,20.40
2016,07,20,10,29,20.40
2016,07,20,10,30,20.30
2016,07,20,10,31,20.30
2016,07,20,10,32,20.10
2016,07,20,10,33,20.00
2016,07,20,10,34,19.90
2016,07,20,10,35,19.80
2016,07,20,10,36,19.90
2016,07,20,10,37,20.00
2016,07,20,10,38,20.10
2016,07,20,10,39,20.20
2016,07,20,10,40,20.20
2016,07,20,10,41,20.10
2016,07,20,10,42,19.90
2016,07,20,10,43,19.90
2016,07,20,10,44,19.70
2016,07,20,10,45,19.70
2016,07,20,10,46,19.70
2016,07,20,10,47,19.70
2016,07,20,10,48,19.80
2016,07,20,10,49,20.00
2016,07,20,10,50,20.20
2016,07,20,10,51,20.40
2016,07,20,10,52,20.50
2016,07,20,10,53,20.40
2016,07,20,10,54,20.40
2016,07,20,10,55,20.50
2016,07,20,10,56,20.50
2016,07,20,10,57,20.50
2016,07,20,10,58,20.40
2016,07,20,10,59,20.50
2016,07,20,11,00,20.50
2016,07,20,11,01,20.60
2016,07,20,11,02,20.70
2016,07,20,11,03,20.80
2016,07,20,11,04,20.90
2016,07,20,11,05,20.80
2016,07,20,11,06,20.80
2016,07,20,11,07,20.90
2016,07,20,11,08,20.90
2016,07,20,11,09,21.00
2016,07,20,11,10,21.00
2016,07,20,11,11,21.10
2016,07,20,11,12,21.10
2016,07,20,11,13,21.10
2016,07,20,11,14,21.10
2016,07,20,11,15,21.20
2016,07,20,11,16,21.10
2016,07,20,11,17,21.00
2016,07,20,11,18,21.00
2016,07,20,11,19,21.00
2016,07,20,11,20,21.00
2016,07,20,11,21,20.90
2016,07,20,11,22,20.90
2016,07,20,11,23,20.90
2016,07,20,11,24,20.90
2016,07,20,11,25,20.90
2016,07,20,11,26,20.90
2016,07,20,11,27,20.90
2016,07,20,11,28,20.90
2016,07,20,11,29,20.90
2016,07,20,11,30,21.00
2016,07,20,11,31,21.20
2016,07,20,11,32,21.30
2016,07,20,11,33,21.30
2016,07,20,11,34,21.30
2016,07,20,11,35,21.20
2016,07,20,11,36,21.20
2016,07,20,11,37,21.20
2016,07,20,11,38,21.30
2016,07,20,11,39,21.30
2016,07,20,11,40,21.20
2016,07,20,11,41,21.30
2016,07,20,11,42,21.40
2016,07,20,11,43,21.50
2016,07,20,11,44,21.60
2016,07,20,11,45,21.60
2016,07,20,11,46,21.70
2016,07,20,11,47,21.80
2016,07,20,11,48,21.80
2016,07,20,11,49,21.80
2016,07,20,11,50,21.80
2016,07,20,11,51,21.70
2016,07,20,11,52,21.60
2016,07,20,11,53,21.70
2016,07,20,11,54,21.70
2016,07,20,11,55,21.80
2016,07,20,11,56,21.80
2016,07,20,11,57,21.90
2016,07,20,11,58,21.90
2016,07,20,11,59,22.00
2016,07,20,12,00,22.20
2016,07,20,12,01,22.20
2016,07,20,12,02,22.20
2016,07,20,12,03,22.30
2016,07,20,12,04,22.40
2016,07,20,12,05,22.60
2016,07,20,12,06,22.60
2016,07,20,12,07,22.60
2016,07,20,12,08,22.50
2016,07,20,12,09,22.60
2016,07,20,12,10,22.70
2016,07,20,12,11,22.80
2016,07,20,12,12,22.70
2016,07,20,12,13,22.70
2016,07,20,12,14,22.60
2016,07,20,12,15,22.60
2016,07,20,12,16,22.60
2016,07,20,12,17,22.50
2016,07,20,12,18,22.40
2016,07,20,12,19,22.30
2016,07,20,12,20,22.40
2016,07,20,12,21,22.50
2016,07,20,12,22,22.50
2016,07,20,12,23,22.60
2016,07,20,12,24,22.50
2016,07,20,12,25,22.30
2016,07,20,12,26,22.10
2016,07,20,12,27,22.00
2016,07,20,12,28,21.90
2016,07,20,12,29,21.90
2016,07,20,12,30,21.90
2016,07,20,12,31,21.90
2016,07,20,12,32,21.80
2016,07,20,12,33,21.80
2016,07,20,12,34,21.70
2016,07,20,12,35,21.70
2016,07,20,12,36,21.80
2016,07,20,12,37,22.00
2016,07,20,12,38,22.20
2016,07,20,12,39,22.30
2016,07,20,12,40,22.30
2016,07,20,12,41,22.30
2016,07,20,12,42,22.30
2016,07,20,12,43,22.40
2016,07,20,12,44,22.40
2016,07,20,12,45,22.50
2016,07,20,12,46,22.60
2016,07,20,12,47,22.60
2016,07,20,12,48,22.60
2016,07,20,12,49,22.70
2016,07,20,12,50,22.70
2016,07,20,12,51,22.60
2016,07,20,12,52,22.60
2016,07,20,12,53,22.60
2016,07,20,12,54,22.70
2016,07,20,12,55,22.60
2016,07,20,12,56,22.70
2016,07,20,12,57,22.70
2016,07,20,12,58,22.70
2016,07,20,12,59,22.70
2016,07,20,13,00,22.70
2016,07,20,13,01,22.60
2016,07,20,13,02,22.60
2016,07,20,13,03,22.50
2016,07,20,13,04,22.60
2016,07,20,13,05,22.60
2016,07,20,13,06,22.70
2016,07,20,13,07,22.70
2016,07,20,13,08,22.80
2016,07,20,13,09,22.90
2016,07,20,13,10,23.00
2016,07,20,13,11,22.90
2016,07,20,13,12,23.00
2016,07,20,13,13,23.00
2016,07,20,13,14,22.80
2016,07,20,13,15,22.70
2016,07,20,13,16,22.80
2016,07,20,13,17,22.90
2016,07,20,13,18,22.90
2016,07,20,13,19,22.90
2016,07,20,13,20,22.90
2016,07,20,13,21,22.80
2016,07,20,13,22,22.70
2016,07,20,13,23,22.70
2016,07,20,13,24,22.70
2016,07,20,13,25,22.70
2016,07,20,13,26,22.80
2016,07,20,13,27,22.80
2016,07,20,13,28,22.80
2016,07,20,13,29,22.70
2016,07,20,13,30,22.70
2016,07,20,13,31,22.70
2016,07,20,13,32,22.70
2016,07,20,13,33,22.80
2016,07,20,13,34,22.90
2016,07,20,13,35,23.00
2016,07,20,13,36,23.00
2016,07,20,13,37,22.90
2016,07,20,13,38,22.80
2016,07,20,13,39,22.90
2016,07,20,13,40,23.10
2016,07,20,13,41,23.20
2016,07,20,13,42,23.20
2016,07,20,13,43,23.20
2016,07,20,13,44,23.20
2016,07,20,13,45,23.20
2016,07,20,13,46,23.40
2016,07,20,13,47,23.50
2016,07,20,13,48,23.60
2016,07,20,13,49,23.60
2016,07,20,13,50,23.50
2016,07,20,13,51,23.40
2016,07,20,13,52,23.40
2016,07,20,13,53,23.40
2016,07,20,13,54,23.40
2016,07,20,13,55,23.40
2016,07,20,13,56,23.30
2016,07,20,13,57,23.30
2016,07,20,13,58,23.40
2016,07,20,13,59,23.40
2016,07,20,14,00,23.40
2016,07,20,14,01,23.40
2016,07,20,14,02,23.30
2016,07,20,14,03,23.20
2016,07,20,14,04,23.20
2016,07,20,14,05,23.10
2016,07,20,14,06,23.10
2016,07,20,14,07,23.10
2016,07,20,14,08,23.00
2016,07,20,14,09,23.10
2016,07,20,14,10,23.10
2016,07,20,14,11,23.00
2016,07,20,14,12,23.10
2016,07,20,14,13,23.10
2016,07,20,14,14,23.10
2016,07,20,14,15,23.10
2016,07,20,14,16,23.10
2016,07,20,14,17,23.20
2016,07,20,14,18,23.40
2016,07,20,14,19,23.50
2016,07,20,14,20,23.70
2016,07,20,14,21,23.70
2016,07,20,14,22,23.70
2016,07,20,14,23,23.60
2016,07,20,14,24,23.50
2016,07,20,14,25,23.40
2016,07,20,14,26,23.40
2016,07,20,14,27,23.40
2016,07,20,14,28,23.40
2016,07,20,14,29,23.40
2016,07,20,14,30,23.40
2016,07,20,14,31,23.40
2016,07,20,14,32,23.40
2016,07,20,14,33,23.40
2016,07,20,14,34,23.50
2016,07,20,14,35,23.50
2016,07,20,14,36,23.60
2016,07,20,14,37,23.60
2016,07,20,14,38,23.60
2016,07,20,14,39,23.50
2016,07,20,14,40,23.50
2016,07,20,14,41,23.40
2016,07,20,14,42,23.40
2016,07,20,14,43,23.50
2016,07,20,14,44,23.50
2016,07,20,14,45,23.40
2016,07,20,14,46,23.40
2016,07,20,14,47,23.40
2016,07,20,14,48,23.40
2016,07,20,14,49,23.50
2016,07,20,14,50,23.40
2016,07,20,14,51,23.40
2016,07,20,14,52,23.40
2016,07,20,14,53,23.40
2016,07,20,14,54,23.40
2016,07,20,14,55,23.50
2016,07,20,14,56,23.50
2016,07,20,14,57,23.60
2016,07,20,14,58,23.50
2016,07,20,14,59,23.50
2016,07,20,15,00,23.40
2016,07,20,15,01,23.30
2016,07,20,15,02,23.30
2016,07,20,15,03,23.30
2016,07,20,15,04,23.40
2016,07,20,15,05,23.40
2016,07,20,15,06,23.40
2016,07,20,15,07,23.40
2016,07,20,15,08,23.30
2016,07,20,15,09,23.30
2016,07,20,15,10,23.30
2016,07,20,15,11,23.30
2016,07,20,15,12,23.40
2016,07,20,15,13,23.50
2016,07,20,15,14,23.60
2016,07,20,15,15,23.50
2016,07,20,15,16,23.50
2016,07,20,15,17,23.50
2016,07,20,15,18,23.40
2016,07,20,15,19,23.50
2016,07,20,15,20,23.50
2016,07,20,15,21,23.40
2016,07,20,15,22,23.20
2016,07,20,15,23,23.10
2016,07,20,15,24,23.10
2016,07,20,15,25,23.20
2016,07,20,15,26,23.30
2016,07,20,15,27,23.30
2016,07,20,15,28,23.40
2016,07,20,15,29,23.30
2016,07,20,15,30,23.20
2016,07,20,15,31,23.20
2016,07,20,15,32,23.20
2016,07,20,15,33,23.20
2016,07,20,15,34,23.20
2016,07,20,15,35,23.20
2016,07,20,15,36,23.30
2016,07,20,15,37,23.30
2016,07,20,15,38,23.30
2016,07,20,15,39,23.20
2016,07,20,15,40,23.10
2016,07,20,15,41,22.90
2016,07,20,15,42,22.90
2016,07,20,15,43,22.90
2016,07,20,15,44,22.90
2016,07,20,15,45,22.90
2016,07,20,15,46,22.90
2016,07,20,15,47,22.80
2016,07,20,15,48,22.80
2016,07,20,15,49,22.90
2016,07,20,15,50,22.90
2016,07,20,15,51,23.00
2016,07,20,15,52,23.10
2016,07,20,15,53,23.20
2016,07,20,15,54,23.30
2016,07,20,15,55,23.30
2016,07,20,15,56,23.30
2016,07,20,15,57,23.30
2016,07,20,15,58,23.40
2016,07,20,15,59,23.50
2016,07,20,16,00,23.50
2016,07,20,16,01,23.60
2016,07,20,16,02,23.50
2016,07,20,16,03,23.50
2016,07,20,16,04,23.50
2016,07,20,16,05,23.50
2016,07,20,16,06,23.50
2016,07,20,16,07,23.50
2016,07,20,16,08,23.40
2016,07,20,16,09,23.30
2016,07,20,16,10,23.20
2016,07,20,16,11,23.30
2016,07,20,16,12,23.30
2016,07,20,16,13,23.30
2016,07,20,16,14,23.20
2016,07,20,16,15,23.20
2016,07,20,16,16,23.20
2016,07,20,16,17,23.20
2016,07,20,16,18,23.20
2016,07,20,16,19,23.20
2016,07,20,16,20,23.30
2016,07,20,16,21,23.30
2016,07,20,16,22,23.20
2016,07,20,16,23,23.20
2016,07,20,16,24,23.20
2016,07,20,16,25,23.30
2016,07,20,16,26,23.30
2016,07,20,16,27,23.40
2016,07,20,16,28,23.50
2016,07,20,16,29,23.60
2016,07,20,16,30,23.70
2016,07,20,16,31,23.80
2016,07,20,16,32,23.90
2016,07,20,16,33,24.00
2016,07,20,16,34,24.00
2016,07,20,16,35,23.90
2016,07,20,16,36,23.80
2016,07,20,16,37,23.70
2016,07,20,16,38,23.70
2016,07,20,16,39,23.60
2016,07,20,16,40,23.70
2016,07,20,16,41,23.70
2016,07,20,16,42,23.70
2016,07,20,16,43,23.70
2016,07,20,16,44,23.70
2016,07,20,16,45,23.70
2016,07,20,16,46,23.60
2016,07,20,16,47,23.50
2016,07,20,16,48,23.40
2016,07,20,16,49,23.40
2016,07,20,16,50,23.50
2016,07,20,16,51,23.60
2016,07,20,16,52,23.60
2016,07,20,16,53,23.70
2016,07,20,16,54,23.80
2016,07,20,16,55,23.70
2016,07,20,16,56,23.70
2016,07,20,16,57,23.70
2016,07,20,16,58,23.80
2016,07,20,16,59,23.80
2016,07,20,17,00,23.80
2016,07,20,17,01,23.90
2016,07,20,17,02,24.00
2016,07,20,17,03,24.00
2016,07,20,17,04,24.00
2016,07,20,17,05,23.90
2016,07,20,17,06,23.90
2016,07,20,17,07,23.80
2016,07,20,17,08,23.80
2016,07,20,17,09,23.70
2016,07,20,17,10,23.60
2016,07,20,17,11,23.60
2016,07,20,17,12,23.60
2016,07,20,17,13,23.60
2016,07,20,17,14,23.50
2016,07,20,17,15,23.50
2016,07,20,17,16,23.50
2016,07,20,17,17,23.60
2016,07,20,17,18,23.70
2016,07,20,17,19,23.70
2016,07,20,17,20,23.70
2016,07,20,17,21,23.70
2016,07,20,17,22,23.80
2016,07,20,17,23,23.80
2016,07,20,17,24,23.80
2016,07,20,17,25,23.80
2016,07,20,17,26,23.70
2016,07,20,17,27,23.70
2016,07,20,17,28,23.70
2016,07,20,17,29,23.80
2016,07,20,17,30,23.70
2016,07,20,17,31,23.80
2016,07,20,17,32,23.80
2016,07,20,17,33,23.80
2016,07,20,17,34,23.80
2016,07,20,17,35,23.80
2016,07,20,17,36,23.70
2016,07,20,17,37,23.70
2016,07,20,17,38,23.70
2016,07,20,17,39,23.70
2016,07,20,17,40,23.60
2016,07,20,17,41,23.60
2016,07,20,17,42,23.50
2016,07,20,17,43,23.50
2016,07,20,17,44,23.60
2016,07,20,17,45,23.60
2016,07,20,17,46,23.60
2016,07,20,17,47,23.60
2016,07,20,17,48,23.50
2016,07,20,17,49,23.50
2016,07,20,17,50,23.40
2016,07,20,17,51,23.40
2016,07,20,17,52,23.30
2016,07,20,17,53,23.30
2016,07,20,17,54,23.20
2016,07,20,17,55,23.20
2016,07,20,17,56,23.20
2016,07,20,17,57,23.10
2016,07,20,17,58,23.10
2016,07,20,17,59,23.10
2016,07,20,18,00,23.20
2016,07,20,18,01,23.30
2016,07,20,18,02,23.30
2016,07,20,18,03,23.30
2016,07,20,18,04,23.40
2016,07,20,18,05,23.50
2016,07,20,18,06,23.50
2016,07,20,18,07,23.60
2016,07,20,18,08,23.60
2016,07,20,18,09,23.60
2016,07,20,18,10,23.50
2016,07,20,18,11,23.50
2016,07,20,18,12,23.40
2016,07,20,18,13,23.40
2016,07,20,18,14,23.30
2016,07,20,18,15,23.10
2016,07,20,18,16,23.00
2016,07,20,18,17,22.90
2016,07,20,18,18,22.80
2016,07,20,18,19,22.80
2016,07,20,18,20,22.80
2016,07,20,18,21,22.80
2016,07,20,18,22,22.80
2016,07,20,18,23,22.90
2016,07,20,18,24,22.90
2016,07,20,18,25,22.90
2016,07,20,18,26,23.00
2016,07,20,18,27,23.10
2016,07,20,18,28,23.00
2016,07,20,18,29,23.00
2016,07,20,18,30,23.00
2016,07,20,18,31,23.00
2016,07,20,18,32,22.90
2016,07,20,18,33,22.90
2016,07,20,18,34,22.80
2016,07,20,18,35,22.70
2016,07,20,18,36,22.70
2016,07,20,18,37,22.70
2016,07,20,18,38,22.70
2016,07,20,18,39,22.70
2016,07,20,18,40,22.80
2016,07,20,18,41,22.80
2016,07,20,18,42,22.90
2016,07,20,18,43,22.90
2016,07,20,18,44,22.90
2016,07,20,18,45,22.90
2016,07,20,18,46,23.00
2016,07,20,18,47,23.10
2016,07,20,18,48,23.10
2016,07,20,18,49,23.10
2016,07,20,18,50,23.00
2016,07,20,18,51,23.00
2016,07,20,18,52,23.00
2016,07,20,18,53,22.90
2016,07,20,18,54,22.90
2016,07,20,18,55,22.90
2016,07,20,18,56,22.90
2016,07,20,18,57,22.80
2016,07,20,18,58,22.80
2016,07,20,18,59,22.80
2016,07,20,19,00,22.80
2016,07,20,19,01,22.80
2016,07,20,19,02,22.80
2016,07,20,19,03,22.80
2016,07,20,19,04,22.80
2016,07,20,19,05,22.80
2016,07,20,19,06,22.80
2016,07,20,19,07,22.80
2016,07,20,19,08,22.80
2016,07,20,19,09,22.80
2016,07,20,19,10,22.80
2016,07,20,19,11,22.70
2016,07,20,19,12,22.70
2016,07,20,19,13,22.60
2016,07,20,19,14,22.60
2016,07,20,19,15,22.50
2016,07,20,19,16,22.60
2016,07,20,19,17,22.60
2016,07,20,19,18,22.60
2016,07,20,19,19,22.60
2016,07,20,19,20,22.70
2016,07,20,19,21,22.70
2016,07,20,19,22,22.70
2016,07,20,19,23,22.70
2016,07,20,19,24,22.70
2016,07,20,19,25,22.70
2016,07,20,19,26,22.80
2016,07,20,19,27,22.70
2016,07,20,19,28,22.80
2016,07,20,19,29,22.80
2016,07,20,19,30,22.80
2016,07,20,19,31,22.80
2016,07,20,19,32,22.80
2016,07,20,19,33,22.80
2016,07,20,19,34,22.90
2016,07,20,19,35,22.90
2016,07,20,19,36,22.90
2016,07,20,19,37,22.90
2016,07,20,19,38,23.00
2016,07,20,19,39,23.00
2016,07,20,19,40,22.90
2016,07,20,19,41,22.90
2016,07,20,19,42,22.80
2016,07,20,19,43,22.80
2016,07,20,19,44,22.70
2016,07,20,19,45,22.60
2016,07,20,19,46,22.60
2016,07,20,19,47,22.50
2016,07,20,19,48,22.40
2016,07,20,19,49,22.40
2016,07,20,19,50,22.30
2016,07,20,19,51,22.30
2016,07,20,19,52,22.30
2016,07,20,19,53,22.30
2016,07,20,19,54,22.20
2016,07,20,19,55,22.20
2016,07,20,19,56,22.20
2016,07,20,19,57,22.20
2016,07,20,19,58,22.20
2016,07,20,19,59,22.20
2016,07,20,20,00,22.20
2016,07,20,20,01,22.20
2016,07,20,20,02,22.20
2016,07,20,20,03,22.20
2016,07,20,20,04,22.10
2016,07,20,20,05,22.10
2016,07,20,20,06,22.10
2016,07,20,20,07,22.00
2016,07,20,20,08,22.00
2016,07,20,20,09,22.00
2016,07,20,20,10,21.90
2016,07,20,20,11,21.90
2016,07,20,20,12,21.90
2016,07,20,20,13,21.80
2016,07,20,20,14,21.80
2016,07,20,20,15,21.70
2016,07,20,20,16,21.70
2016,07,20,20,17,21.60
2016,07,20,20,18,21.60
2016,07,20,20,19,21.60
2016,07,20,20,20,21.60
2016,07,20,20,21,21.60
2016,07,20,20,22,21.50
2016,07,20,20,23,21.50
2016,07,20,20,24,21.50
2016,07,20,20,25,21.40
2016,07,20,20,26,21.40
2016,07,20,20,27,21.40
2016,07,20,20,28,21.30
2016,07,20,20,29,21.20
2016,07,20,20,30,21.20
2016,07,20,20,31,21.10
2016,07,20,20,32,21.00
2016,07,20,20,33,21.00
2016,07,20,20,34,20.90
2016,07,20,20,35,20.80
2016,07,20,20,36,20.80
2016,07,20,20,37,20.70
2016,07,20,20,38,20.70
2016,07,20,20,39,20.60
2016,07,20,20,40,20.50
2016,07,20,20,41,20.50
2016,07,20,20,42,20.40
2016,07,20,20,43,20.40
2016,07,20,20,44,20.30
2016,07,20,20,45,20.30
2016,07,20,20,46,20.20
2016,07,20,20,47,20.10
2016,07,20,20,48,20.10
2016,07,20,20,49,20.00
2016,07,20,20,50,19.90
2016,07,20,20,51,19.80
2016,07,20,20,52,19.80
2016,07,20,20,53,19.70
2016,07,20,20,54,19.70
2016,07,20,20,55,19.60
2016,07,20,20,56,19.60
2016,07,20,20,57,19.50
2016,07,20,20,58,19.50
2016,07,20,20,59,19.40
2016,07,20,21,00,19.40
2016,07,20,21,01,19.30
2016,07,20,21,02,19.30
2016,07,20,21,03,19.30
2016,07,20,21,04,19.20
2016,07,20,21,05,19.20
2016,07,20,21,06,19.10
2016,07,20,21,07,19.10
2016,07,20,21,08,19.00
2016,07,20,21,09,19.00
2016,07,20,21,10,18.90
2016,07,20,21,11,18.90
2016,07,20,21,12,18.80
2016,07,20,21,13,18.80
2016,07,20,21,14,18.80
2016,07,20,21,15,18.70
2016,07,20,21,16,18.70
2016,07,20,21,17,18.70
2016,07,20,21,18,18.60
2016,07,20,21,19,18.60
2016,07,20,21,20,18.60
2016,07,20,21,21,18.50
2016,07,20,21,22,18.50
2016,07,20,21,23,18.40
2016,07,20,21,24,18.40
2016,07,20,21,25,18.40
2016,07,20,21,26,18.30
2016,07,20,21,27,18.30
2016,07,20,21,28,18.30
2016,07,20,21,29,18.20
2016,07,20,21,30,18.20
2016,07,20,21,31,18.20
2016,07,20,21,32,18.10
2016,07,20,21,33,18.10
2016,07,20,21,34,18.10
2016,07,20,21,35,18.00
2016,07,20,21,36,18.00
2016,07,20,21,37,17.90
2016,07,20,21,38,17.90
2016,07,20,21,39,17.80
2016,07,20,21,40,17.80
2016,07,20,21,41,17.70
2016,07,20,21,42,17.70
2016,07,20,21,43,17.60
2016,07,20,21,44,17.60
2016,07,20,21,45,17.60
2016,07,20,21,46,17.60
2016,07,20,21,47,17.50
2016,07,20,21,48,17.50
2016,07,20,21,49,17.50
2016,07,20,21,50,17.40
2016,07,20,21,51,17.40
2016,07,20,21,52,17.40
2016,07,20,21,53,17.30
2016,07,20,21,54,17.30
2016,07,20,21,55,17.30
2016,07,20,21,56,17.20
2016,07,20,21,57,17.20
2016,07,20,21,58,17.20
2016,07,20,21,59,17.20
2016,07,20,22,00,17.10
2016,07,20,22,01,17.10
2016,07,20,22,02,17.10
2016,07,20,22,03,17.10
2016,07,20,22,04,17.00
2016,07,20,22,05,17.00
2016,07,20,22,06,17.00
2016,07,20,22,07,16.90
2016,07,20,22,08,16.90
2016,07,20,22,09,16.90
2016,07,20,22,10,16.90
2016,07,20,22,11,16.80
2016,07,20,22,12,16.80
2016,07,20,22,13,16.80
2016,07,20,22,14,16.80
2016,07,20,22,15,16.80
2016,07,20,22,16,16.80
2016,07,20,22,17,16.70
2016,07,20,22,18,16.70
2016,07,20,22,19,16.70
2016,07,20,22,20,16.70
2016,07,20,22,21,16.60
2016,07,20,22,22,16.60
2016,07,20,22,23,16.60
2016,07,20,22,24,16.60
2016,07,20,22,25,16.50
2016,07,20,22,26,16.50
2016,07,20,22,27,16.50
2016,07,20,22,28,16.50
2016,07,20,22,29,16.50
2016,07,20,22,30,16.60
2016,07,20,22,31,16.60
2016,07,20,22,32,16.60
2016,07,20,22,33,16.70
2016,07,20,22,34,16.70
2016,07,20,22,35,16.70
2016,07,20,22,36,16.80
2016,07,20,22,37,16.80
2016,07,20,22,38,16.80
2016,07,20,22,39,16.80
2016,07,20,22,40,16.80